User: anonymous   Login
Location: Long Island Community Building
(39.9491°N, 99.5338°W)
Time: 14:08:52
(UTC+00:00)
Language:

Cosmos 1371 Rocket - Orbit

View from above orbital plane
View from above orbital plane
View from above satellite
View from above satellite

Ground track
Ground track

The orbit data is extracted from the following two-line orbital elements,

1 13242U 82051B   20056.24982590 +.00000021 +00000-0 +16284-4 0  9998
2 13242 074.0459 349.2453 0025842 306.8997 052.9788 14.35968784974437
Epoch (UTC): 25 February 2020 05:59:44
Eccentricity: 0.0025842
inclination: 74.0459°
perigee height: 753 km
apogee height: 790 km
right ascension of ascending node: 349.2453°
argument of perigee: 306.8997°
revolutions per day: 14.35968784
mean anomaly at epoch: 52.9788°
orbit number at epoch: 97443

The dashed part of the orbit path shows where the satellite is in the earth's shadow,  

DLR